Wind_Speed
14 12 10 10 10 8 7 5 4 2 1 2 3 4 6 7 8 9 10 10 11 11 12 12 13 12 12 12 12 12 12 12 11 10 9 8 7 7 6 5 5 4 4 3
16 15 13 12 11 9 7 6 5 4 2 1 0 2 4 4 5 6 7 8 9 9 10 10 11 11 11 11 11 11 11 11 11 11 10 9 7 7 7 6 6 5 4 4
18 17 16 14 12 11 9 8 7 6 4 3 2 3 4 4 4 5 6 6 7 7 8 8 9 10 10 10 10 10 11 11 11 11 10 9 8 7 7 6 6 5 5 4
21 20 18 16 14 12 11 10 9 7 6 5 3 3 6 4 4 5 5 5 5 5 6 6 7 8 9 10 10 10 10 10 10 11 11 10 9 8 7 6 6 5 5 5
23 22 20 18 17 15 14 13 11 9 8 7 6 4 7 6 4 5 5 5 5 5 5 5 6 7 8 9 9 9 9 9 10 10 11 11 10 10 9 7 7 6 6 5
26 24 23 21 19 18 15 14 12 11 9 9 9 6 7 7 6 6 6 6 5 5 5 5 6 6 7 8 8 8 8 8 9 10 10 10 9 9 9 8 7 7 6 6
28 26 26 24 22 20 17 14 12 11 11 11 11 8 9 9 7 7 7 6 6 6 5 5 6 6 6 7 7 7 7 7 8 8 9 10 10 9 9 9 8 7 6 5
28 28 28 26 24 22 20 17 16 14 13 12 13 11 11 10 9 8 7 7 7 7 6 6 6 6 6 7 7 7 7 7 8 8 8 9 9 10 9 9 8 7 7 6
28 28 29 28 26 25 22 21 19 17 16 14 14 14 13 12 11 10 9 9 9 8 8 7 7 7 7 7 8 8 8 8 9 9 9 9 9 9 9 9 9 8 7 7
31 30 31 29 29 28 26 23 21 20 19 17 16 15 14 14 13 12 11 10 10 9 9 9 9 9 8 8 8 9 9 9 9 10 10 10 10 10 10 10 10 9 9 8
33 32 32 32 31 29 29 27 25 23 22 19 17 17 16 15 14 13 13 12 12 12 11 11 11 11 10 10 9 9 10 10 10 10 11 11 11 11 10 10 10 10 10 9
35 34 33 33 33 32 31 29 27 26 25 23 20 19 19 16 15 15 15 14 15 14 14 13 13 13 12 11 11 11 11 11 11 12 11 12 12 12 11 11 11 11 11 11
37 37 35 34 34 34 33 31 29 27 26 25 23 21 21 19 18 17 17 17 16 16 16 15 15 15 14 13 13 13 13 13 13 13 12 13 13 13 13 13 13 13 12 12
37 38 36 33 31 32 33 32 31 29 28 27 25 23 23 22 21 20 19 19 18 18 17 17 17 16 16 15 15 15 15 15 15 14 14 14 14 14 15 14 14 14 14 13
38 38 38 37 35 34 34 33 33 32 30 28 27 26 25 24 23 22 22 21 21 20 20 19 19 18 18 17 17 17 17 17 17 17 16 16 16 16 16 15 15 15 15 15
38 38 38 38 37 36 36 35 34 34 33 31 30 29 27 26 26 25 24 23 23 22 22 22 22 21 20 20 19 19 19 19 19 18 18 18 18 17 17 16 16 16 16 16
38 38 38 38 38 37 39 37 36 36 35 33 32 31 30 29 28 27 26 25 25 25 24 24 24 23 23 22 22 21 21 21 21 21 20 20 19 19 19 18 18 18 18 18
38 38 38 37 37 39 38 36 37 37 36 35 34 33 32 30 29 29 28 28 27 27 27 26 27 27 26 25 24 24 23 23 23 23 23 22 22 21 21 21 20 20 20 19
39 39 39 38 38 39 39 39 38 38 38 36 35 34 33 32 31 30 30 29 29 29 29 29 29 28 28 27 26 25 25 25 25 25 25 24 23 23 23 22 22 22 22 21
39 39 40 40 39 39 38 39 38 38 39 38 37 36 35 33 33 32 31 31 30 30 30 29 29 29 28 28 27 27 27 27 27 27 26 26 26 25 25 25 24 23 23 22
39 39 40 40 40 41 39 39 38 38 38 38 38 36 35 35 34 33 32 32 31 30 30 30 29 29 29 29 29 29 29 29 28 28 28 28 28 27 27 27 27 26 25 25
39 39 40 40 40 40 40 39 39 38 38 38 38 37 36 36 35 35 34 33 32 31 31 31 31 31 31 31 31 30 30 30 30 29 29 29 29 29 29 28 28 28 28 28
39 39 39 40 40 40 41 40 38 37 38 38 38 38 37 36 35 35 35 35 34 34 33 34 33 33 32 32 32 32 32 32 31 31 31 31 31 31 31 30 30 30 30 30
39 40 40 40 40 40 40 39 38 37 38 39 38 37 38 37 37 37 37 36 36 36 36 35 35 34 34 33 33 33 33 33 32 32 32 32 32 33 33 32 32 32 31 30
39 40 40 40 40 40 40 39 38 37 38 39 39 38 38 39 39 38 38 38 38 37 37 36 35 35 35 34 34 34 34 33 32 33 33 33 34 34 33 33 33 33 32 32
39 39 39 40 40 40 40 39 38 37 37 38 39 39 38 38 38 37 37 37 38 38 37 36 36 36 36 36 35 35 35 34 33 33 34 34 34 34 34 34 34 34 34 33
Wind_Direction
205 205 207 205 196 192 189 187 191 191 161 102 69 46 40 43 44 45 44 41 39 38 39 40 41 44 45 46 48 48 48 47 49 50 51 53 56 56 56 57 54 47 38 29
210 211 211 209 205 202 203 204 221 224 211 206 42 11 9 17 25 30 34 35 33 31 33 35 35 37 40 41 43 43 42 41 42 44 44 44 47 46 47 45 41 37 30 18
214 217 216 215 212 210 214 221 233 238 235 240 258 322 329 345 356 8 17 20 19 18 19 24 27 29 32 33 33 34 36 37 37 38 39 39 40 41 39 35 34 32 23 18
217 218 218 218 217 216 225 232 237 242 240 249 243 275 299 307 329 346 354 0 5 4 6 11 16 20 24 26 26 28 31 33 32 31 32 33 36 32 31 30 32 32 29 31
221 220 219 219 220 221 226 233 238 241 241 246 254 253 279 286 301 322 333 338 342 344 344 350 0 5 10 14 20 23 25 26 27 27 27 28 29 27 27 28 28 26 28 27
222 222 220 221 223 226 230 236 243 247 248 252 251 246 267 272 278 297 313 321 324 331 331 332 341 347 353 360 5 11 16 19 19 20 22 22 21 19 21 21 18 17 15 18
223 224 223 223 225 228 230 234 245 251 250 252 253 245 254 260 265 281 295 306 312 314 314 315 326 334 338 344 350 355 358 3 7 7 9 12 12 12 12 11 10 8 5 9
224 225 225 224 225 229 231 232 234 239 246 254 258 249 253 256 261 271 282 292 300 301 301 301 310 316 320 325 332 338 340 343 349 352 353 356 358 2 1 1 1 357 356 1
224 227 229 228 228 231 234 234 238 244 248 249 256 254 254 257 261 265 272 282 289 294 294 296 300 304 308 314 318 322 325 328 333 337 340 342 343 348 353 353 352 349 345 347
225 227 231 231 231 232 234 237 240 240 245 250 257 261 259 257 258 260 266 273 278 286 288 289 292 299 303 306 309 312 318 318 320 323 327 332 332 333 337 341 342 340 335 335
226 228 231 233 233 235 236 237 239 242 244 246 254 259 259 257 257 259 264 269 272 279 284 285 288 292 296 298 299 300 306 309 310 311 316 319 320 321 325 328 331 332 327 324
226 229 233 235 236 234 236 237 240 241 246 245 247 255 259 256 257 260 264 266 269 274 279 281 283 284 289 292 293 294 296 301 304 305 307 310 311 311 314 316 318 319 321 321
228 229 231 234 237 236 236 238 241 242 246 248 248 252 256 255 257 260 262 264 266 269 273 276 279 280 282 285 288 290 291 294 299 303 304 306 305 306 305 306 307 307 310 313
230 231 231 233 237 240 239 239 241 242 245 248 248 248 254 254 256 257 260 263 266 266 268 271 275 277 278 280 283 284 286 288 292 295 297 299 299 300 301 298 300 299 301 304
230 232 233 233 234 237 240 241 241 241 243 246 250 250 250 252 255 257 259 262 265 265 266 268 270 272 274 276 279 280 281 283 286 289 292 294 294 293 296 295 295 294 295 298
231 233 234 236 237 238 240 240 241 243 244 246 247 249 251 252 252 254 257 261 262 263 265 268 270 270 271 274 277 277 279 281 283 285 287 290 292 289 289 290 290 289 292 294
232 234 235 237 238 240 241 240 242 243 245 247 248 250 252 252 253 254 255 258 260 261 263 266 268 269 270 272 274 274 276 278 279 281 283 286 287 287 288 290 288 286 286 290
233 234 235 238 239 240 243 242 243 244 244 246 248 251 252 253 253 254 254 255 258 261 262 263 265 268 269 270 271 271 272 275 277 278 281 283 283 285 287 289 288 284 283 284
232 234 235 237 240 243 243 243 243 244 245 246 248 250 252 253 253 253 254 255 257 259 262 263 264 266 267 268 267 268 271 273 276 277 279 281 282 283 285 286 285 283 282 283
233 234 236 238 239 242 246 246 246 246 247 246 247 248 249 250 251 252 254 255 257 259 260 262 263 265 266 266 265 267 270 272 274 276 278 279 280 281 282 283 283 282 282 283
234 235 237 239 241 243 243 245 245 245 247 247 248 248 248 249 251 252 253 255 256 257 259 262 264 265 265 265 265 267 269 270 271 273 275 277 278 279 280 281 282 281 283 285
236 237 238 239 241 243 243 244 244 246 246 247 247 247 247 248 249 250 251 253 254 256 259 261 263 265 267 267 267 267 269 269 270 271 272 274 276 277 278 279 281 282 282 283
236 236 238 239 240 241 243 244 245 245 246 246 246 246 246 247 248 250 251 253 254 256 259 261 262 264 266 268 268 268 269 270 270 271 272 273 274 275 277 278 279 280 281 281
236 236 238 240 241 242 243 244 244 244 244 244 245 245 247 247 249 252 253 254 255 258 259 260 261 262 264 266 268 269 269 269 269 272 274 274 275 276 276 277 277 277 278 279
237 238 238 239 240 241 242 243 243 243 243 244 245 246 248 250 250 251 253 254 255 257 258 259 260 261 263 265 268 268 268 268 270 272 273 275 276 277 275 275 275 275 276 277
238 238 237 238 238 240 240 241 242 243 244 245 246 248 249 251 252 252 253 254 256 258 259 260 261 261 262 264 266 266 266 268 270 272 272 273 274 276 276 275 274 274 274 275
Height
5920 5923 5925 5927 5928 5930 5931 5932 5933 5933 5932 5932 5932 5931 5931 5929 5928 5927 5926 5924 5923 5921 5919 5917 5916 5914 5912 5911 5909 5907 5906 5904 5902 5901 5899 5898 5897 5896 5895 5894 5892 5891 5890 5890
5919 5921 5923 5924 5926 5928 5930 5931 5932 5932 5932 5932 5932 5932 5931 5930 5929 5928 5927 5926 5924 5923 5921 5919 5918 5916 5914 5913 5911 5909 5908 5906 5904 5902 5901 5899 5898 5896 5895 5894 5893 5892 5890 5890
5916 5920 5920 5922 5924 5926 5928 5930 5931 5931 5931 5931 5932 5932 5931 5930 5929 5929 5927 5926 5925 5924 5922 5921 5919 5917 5916 5914 5912 5911 5909 5907 5906 5904 5902 5900 5898 5897 5896 5895 5893 5892 5891 5890
5912 5915 5917 5920 5922 5924 5927 5928 5929 5930 5931 5932 5932 5934 5932 5930 5929 5929 5928 5927 5926 5924 5923 5922 5920 5919 5917 5915 5914 5912 5910 5909 5907 5905 5903 5901 5899 5898 5896 5895 5894 5892 5891 5890
5908 5911 5914 5917 5920 5922 5924 5925 5926 5928 5929 5931 5931 5932 5933 5930 5929 5928 5927 5926 5925 5925 5924 5922 5921 5919 5918 5916 5915 5913 5911 5910 5908 5906 5904 5902 5900 5899 5897 5896 5894 5893 5891 5890
5904 5907 5910 5914 5916 5918 5921 5923 5924 5925 5928 5930 5929 5930 5931 5929 5928 5927 5926 5925 5925 5924 5923 5922 5921 5919 5918 5916 5915 5914 5912 5911 5909 5907 5905 5903 5901 5899 5897 5896 5895 5893 5892 5890
5899 5902 5905 5909 5912 5915 5917 5921 5923 5925 5926 5928 5927 5927 5928 5927 5926 5926 5925 5924 5924 5923 5922 5921 5920 5919 5918 5916 5915 5914 5912 5911 5909 5908 5906 5904 5902 5900 5898 5896 5895 5894 5892 5891
5894 5898 5901 5904 5908 5911 5913 5918 5921 5924 5925 5926 5923 5924 5926 5924 5924 5924 5924 5923 5922 5922 5921 5920 5919 5918 5917 5916 5915 5913 5912 5911 5909 5908 5906 5904 5902 5900 5898 5896 5895 5893 5892 5891
5890 5894 5896 5900 5903 5907 5909 5912 5916 5919 5919 5921 5922 5921 5921 5921 5921 5921 5921 5921 5921 5920 5919 5919 5918 5917 5916 5915 5914 5913 5911 5910 5909 5907 5905 5904 5902 5900 5898 5896 5895 5893 5892 5891
5884 5888 5890 5894 5897 5901 5905 5908 5910 5913 5915 5917 5918 5918 5919 5918 5918 5919 5918 5918 5918 5918 5917 5917 5916 5915 5915 5914 5912 5911 5910 5909 5907 5906 5904 5903 5901 5900 5898 5896 5894 5892 5891 5890
5878 5882 5885 5888 5891 5895 5899 5902 5904 5907 5909 5913 5915 5918 5914 5914 5915 5915 5915 5915 5915 5915 5915 5914 5914 5913 5912 5911 5911 5909 5908 5907 5905 5904 5903 5901 5900 5898 5897 5895 5893 5891 5890 5888
5870 5875 5878 5882 5885 5888 5892 5895 5898 5902 5903 5905 5909 5914 5909 5909 5910 5911 5911 5911 5912 5912 5912 5911 5910 5910 5909 5909 5908 5907 5906 5905 5903 5902 5900 5899 5897 5896 5895 5893 5892 5890 5888 5887
5862 5867 5871 5875 5879 5881 5884 5888 5891 5895 5897 5899 5903 5907 5904 5904 5905 5906 5906 5907 5908 5908 5908 5908 5907 5906 5906 5905 5905 5904 5903 5902 5900 5899 5898 5896 5895 5893 5892 5891 5889 5888 5886 5884
5855 5859 5865 5870 5873 5875 5877 5881 5884 5887 5890 5893 5895 5898 5899 5899 5900 5901 5901 5902 5903 5903 5903 5903 5903 5902 5902 5901 5900 5900 5899 5898 5897 5896 5894 5893 5892 5890 5889 5887 5886 5885 5883 5882
5846 5850 5855 5859 5863 5867 5870 5873 5876 5879 5883 5886 5889 5890 5892 5893 5894 5895 5896 5896 5897 5898 5898 5898 5898 5897 5897 5896 5896 5895 5894 5893 5892 5891 5890 5889 5888 5886 5885 5883 5882 5881 5880 5878
5837 5842 5847 5850 5854 5858 5861 5865 5868 5871 5874 5878 5880 5883 5884 5886 5887 5888 5889 5890 5891 5892 5892 5892 5892 5892 5891 5891 5890 5890 5889 5888 5887 5887 5886 5884 5883 5881 5880 5879 5878 5877 5876 5874
5829 5834 5838 5842 5846 5849 5852 5857 5860 5863 5866 5870 5872 5875 5876 5878 5879 5881 5882 5883 5884 5885 5885 5885 5885 5885 5885 5885 5885 5884 5883 5882 5882 5881 5880 5879 5878 5876 5875 5874 5873 5872 5871 5870
5821 5825 5829 5834 5837 5839 5845 5848 5851 5854 5857 5860 5863 5865 5868 5869 5871 5873 5874 5875 5877 5877 5878 5878 5878 5878 5878 5878 5878 5877 5877 5876 5875 5875 5874 5873 5871 5870 5870 5868 5867 5866 5866 5865
5811 5816 5820 5824 5827 5830 5834 5838 5842 5845 5847 5851 5854 5856 5859 5860 5862 5864 5866 5867 5868 5869 5870 5870 5870 5870 5870 5871 5870 5870 5870 5869 5868 5867 5867 5866 5865 5864 5863 5862 5861 5860 5859 5859
5802 5806 5811 5814 5818 5821 5826 5828 5832 5836 5837 5841 5843 5847 5849 5851 5854 5856 5857 5858 5859 5860 5861 5861 5862 5862 5862 5863 5863 5863 5862 5861 5861 5861 5860 5859 5858 5857 5856 5855 5854 5853 5852 5852
5792 5796 5800 5804 5807 5811 5815 5818 5822 5826 5829 5831 5834 5837 5839 5842 5844 5846 5847 5849 5850 5851 5852 5852 5853 5853 5854 5854 5854 5854 5854 5853 5853 5852 5852 5851 5850 5850 5849 5848 5847 5846 5845 5844
5782 5786 5790 5794 5798 5803 5804 5808 5812 5815 5818 5821 5823 5826 5829 5831 5833 5835 5837 5838 5840 5841 5843 5843 5844 5844 5845 5845 5845 5845 5845 5845 5844 5844 5843 5843 5842 5841 5840 5840 5839 5838 5837 5836
5771 5776 5779 5784 5789 5791 5794 5797 5801 5804 5807 5810 5813 5816 5818 5821 5823 5826 5827 5829 5830 5831 5833 5833 5834 5835 5835 5835 5835 5835 5835 5835 5835 5835 5834 5834 5833 5832 5832 5831 5830 5829 5828 5827
5760 5764 5769 5772 5776 5780 5783 5787 5790 5793 5797 5799 5802 5805 5807 5810 5813 5815 5817 5818 5819 5820 5821 5822 5823 5824 5824 5825 5825 5825 5825 5825 5825 5825 5825 5824 5824 5823 5822 5821 5821 5820 5819 5818
5750 5754 5758 5762 5765 5769 5773 5776 5780 5783 5786 5789 5792 5794 5797 5799 5801 5803 5805 5807 5808 5809 5810 5811 5812 5813 5814 5814 5814 5814 5814 5814 5815 5815 5815 5814 5814 5813 5812 5812 5811 5810 5810 5809
5740 5744 5748 5751 5755 5759 5763 5766 5769 5773 5776 5778 5781 5783 5785 5788 5790 5791 5793 5795 5796 5797 5798 5799 5800 5801 5802 5803 5803 5803 5804 5804 5805 5805 5804 5804 5804 5803 5802 5802 5801 5800 5800 5799